When you browse on this site, cookies collect data to enhance your experience and personalize the content and advertising you see.
Visit our Privacy Policy to learn more. By continuing to use the site, you agree to this use of cookies and data.
  • In Hungary
  • List of Countries
  • For 7 days
  • Water Temperature
  • Satellite Maps
  • Weather Map
  • News
  • Weather Widgets
  • user-avatar
    Login

    Hourly Weather Igarka

    Today, 18 January, Friday

    Time Temperature Precipitation Wind Pressure Humidity
    00:00 -26°C° 0.2 mm 9 mps 756 mmHg 95%
    01:00 -25°C° 0.7 mm 10 mps 755 mmHg 95%
    02:00 -23°C° 0.7 mm 10 mps 755 mmHg 94%
    03:00 -22°C° 0.7 mm 11 mps 754 mmHg 94%
    04:00 -19°C° 0.4 mm 11 mps 753 mmHg 93%
    05:00 -18°C° 0.4 mm 10 mps 752 mmHg 92%
    06:00 -17°C° 0.4 mm 10 mps 752 mmHg 91%
    07:00 -15°C° 0.2 mm 10 mps 751 mmHg 91%
    08:00 -15°C° 0.2 mm 10 mps 751 mmHg 91%
    09:00 -14°C° 0.2 mm 10 mps 750 mmHg 91%
    10:00 -14°C° 0.1 mm 10 mps 750 mmHg 90%
    11:00 -14°C° 0.1 mm 9 mps 749 mmHg 89%
    12:00 -12°C° 0.1 mm 9 mps 749 mmHg 88%
    13:00 -14°C° 0.2 mm 9 mps 748 mmHg 89%
    14:00 -14°C° 0.2 mm 9 mps 748 mmHg 90%
    15:00 -14°C° 0.2 mm 9 mps 747 mmHg 91%
    16:00 -14°C° 0.4 mm 9 mps 747 mmHg 90%
    17:00 -14°C° 0.4 mm 9 mps 746 mmHg 90%
    18:00 -15°C° 0.4 mm 9 mps 746 mmHg 90%
    19:00 -15°C° 0.1 mm 9 mps 746 mmHg 89%
    20:00 -15°C° 0.1 mm 8 mps 746 mmHg 89%
    21:00 -15°C° 0.1 mm 8 mps 746 mmHg 89%
    22:00 -13°C° 0.1 mm 8 mps 746 mmHg 89%
    23:00 -13°C° 0.1 mm 7 mps 746 mmHg 89%

    Tomorrow, 19 January, Saturday

    Time Temperature Precipitation Wind Pressure Humidity
    00:00 -13°C° 0.1 mm 7 mps 747 mmHg 89%
    01:00 -13°C° 0.1 mm 7 mps 747 mmHg 90%
    02:00 -14°C° 0.1 mm 7 mps 746 mmHg 91%
    03:00 -14°C° 0.1 mm 7 mps 746 mmHg 91%
    04:00 -13°C° 0.3 mm 7 mps 746 mmHg 91%
    05:00 -13°C° 0.3 mm 8 mps 746 mmHg 91%
    06:00 -13°C° 0.3 mm 8 mps 746 mmHg 91%
    07:00 -13°C° 0.3 mm 8 mps 745 mmHg 91%
    08:00 -13°C° 0.3 mm 8 mps 745 mmHg 91%
    09:00 -15°C° 0.3 mm 8 mps 745 mmHg 91%
    10:00 -15°C° 0.3 mm 8 mps 744 mmHg 91%
    11:00 -15°C° 0.3 mm 8 mps 744 mmHg 91%
    12:00 -15°C° 0.3 mm 8 mps 744 mmHg 91%
    13:00 -16°C° 0.3 mm 8 mps 743 mmHg 92%
    14:00 -15°C° 0.3 mm 7 mps 743 mmHg 92%
    15:00 -15°C° 0.3 mm 7 mps 742 mmHg 92%
    16:00 -15°C° 0.2 mm 6 mps 742 mmHg 93%
    17:00 -15°C° 0.2 mm 6 mps 742 mmHg 93%
    18:00 -15°C° 0.2 mm 6 mps 742 mmHg 93%
    19:00 -14°C° 0.2 mm 5 mps 742 mmHg 94%
    20:00 -14°C° 0.2 mm 5 mps 742 mmHg 94%
    21:00 -14°C° 0.2 mm 4 mps 742 mmHg 94%
    22:00 -15°C° 0.1 mm 5 mps 743 mmHg 94%
    23:00 -17°C° 0.1 mm 5 mps 743 mmHg 93%

    Day after tomorrow, 20 January, Sunday

    Time Temperature Precipitation Wind Pressure Humidity
    00:00 -18°C° 0.1 mm 5 mps 744 mmHg 93%
    01:00 -22°C° 0 mm 5 mps 745 mmHg 94%
    02:00 -25°C° 0 mm 4 mps 746 mmHg 94%
    03:00 -30°C° 0 mm 4 mps 747 mmHg 95%
    04:00 -31°C° 0 mm 4 mps 747 mmHg 96%
    05:00 -32°C° 0 mm 4 mps 748 mmHg 97%
    06:00 -32°C° 0 mm 3 mps 749 mmHg 97%
    07:00 -32°C° 0 mm 3 mps 749 mmHg 97%
    08:00 -32°C° 0 mm 3 mps 750 mmHg 98%
    09:00 -32°C° 0 mm 3 mps 750 mmHg 98%
    10:00 -31°C° 0 mm 3 mps 750 mmHg 98%
    11:00 -31°C° 0 mm 3 mps 751 mmHg 97%
    12:00 -31°C° 0 mm 3 mps 751 mmHg 97%
    13:00 -32°C° 0 mm 3 mps 751 mmHg 98%
    14:00 -30°C° 0 mm 2 mps 751 mmHg 98%
    15:00 -30°C° 0 mm 2 mps 752 mmHg 98%
    16:00 -31°C° 0 mm 2 mps 752 mmHg 98%
    17:00 -31°C° 0 mm 2 mps 752 mmHg 98%
    18:00 -31°C° 0 mm 2 mps 752 mmHg 99%
    19:00 -32°C° 0 mm 2 mps 753 mmHg 99%
    20:00 -32°C° 0 mm 2 mps 753 mmHg 99%
    21:00 -32°C° 0 mm 2 mps 753 mmHg 99%
    22:00 -34°C° 0 mm 2 mps 754 mmHg 98%
    23:00 -34°C° 0 mm 2 mps 754 mmHg 98%

    21 January, Monday

    Time Temperature Precipitation Wind Pressure Humidity
    00:00 -34°C° 0 mm 2 mps 754 mmHg 98%
    01:00 -34°C° 0 mm 2 mps 755 mmHg 98%
    02:00 -35°C° 0 mm 2 mps 755 mmHg 98%
    03:00 -35°C° 0 mm 2 mps 756 mmHg 98%
    04:00 -32°C° 0 mm 1 mps 756 mmHg 98%
    05:00 -32°C° 0 mm 1 mps 757 mmHg 98%
    06:00 -32°C° 0 mm 1 mps 757 mmHg 99%
    07:00 -32°C° 0 mm 1 mps 757 mmHg 99%
    08:00 -32°C° 0 mm 1 mps 758 mmHg 99%
    09:00 -32°C° 0 mm 1 mps 758 mmHg 99%
    10:00 -32°C° 0 mm 1 mps 758 mmHg 99%
    11:00 -35°C° 0 mm 2 mps 758 mmHg 98%
    12:00 -35°C° 0 mm 2 mps 759 mmHg 98%
    13:00 -35°C° 0 mm 2 mps 759 mmHg 98%
    14:00 -35°C° 0 mm 2 mps 759 mmHg 98%
    15:00 -35°C° 0 mm 2 mps 759 mmHg 98%
    16:00 -35°C° 0 mm 2 mps 758 mmHg 98%
    17:00 -34°C° 0 mm 2 mps 758 mmHg 98%
    18:00 -34°C° 0 mm 2 mps 758 mmHg 98%
    19:00 -32°C° 0 mm 2 mps 757 mmHg 96%
    20:00 -32°C° 0 mm 2 mps 757 mmHg 95%
    21:00 -31°C° 0 mm 2 mps 757 mmHg 94%
    22:00 -33°C° 0 mm 3 mps 756 mmHg 93%
    23:00 -32°C° 0 mm 3 mps 755 mmHg 92%

    22 January, Tuesday

    Time Temperature Precipitation Wind Pressure Humidity
    00:00 -32°C° 0 mm 3 mps 755 mmHg 91%
    01:00 -32°C° 0 mm 4 mps 754 mmHg 91%
    02:00 -32°C° 0 mm 4 mps 754 mmHg 90%
    03:00 -31°C° 0 mm 4 mps 753 mmHg 90%
    04:00 -31°C° 0 mm 4 mps 753 mmHg 89%
    05:00 -30°C° 0 mm 4 mps 753 mmHg 87%
    06:00 -30°C° 0 mm 4 mps 752 mmHg 86%
    07:00 -30°C° 0 mm 4 mps 752 mmHg 86%
    08:00 -30°C° 0 mm 4 mps 751 mmHg 86%
    09:00 -30°C° 0 mm 4 mps 751 mmHg 86%
    10:00 -29°C° 0 mm 4 mps 751 mmHg 86%
    11:00 -29°C° 0 mm 4 mps 751 mmHg 86%
    12:00 -29°C° 0 mm 4 mps 751 mmHg 86%
    13:00 -29°C° 0 mm 4 mps 751 mmHg 87%
    14:00 -29°C° 0 mm 4 mps 751 mmHg 88%
    15:00 -29°C° 0 mm 4 mps 751 mmHg 88%
    16:00 -30°C° 0 mm 4 mps 751 mmHg 89%
    17:00 -30°C° 0 mm 4 mps 751 mmHg 90%
    18:00 -31°C° 0 mm 4 mps 752 mmHg 91%
    19:00 -31°C° 0 mm 4 mps 752 mmHg 91%
    20:00 -32°C° 0 mm 4 mps 752 mmHg 92%
    21:00 -31°C° 0 mm 3 mps 753 mmHg 92%
    22:00 -32°C° 0 mm 3 mps 753 mmHg 92%
    23:00 -32°C° 0 mm 3 mps 754 mmHg 92%

    23 January, Wednesday

    Time Temperature Precipitation Wind Pressure Humidity
    00:00 -32°C° 0 mm 3 mps 755 mmHg 92%
    01:00 -32°C° 0 mm 3 mps 755 mmHg 92%
    02:00 -33°C° 0 mm 3 mps 756 mmHg 93%
    03:00 -31°C° 0 mm 2 mps 757 mmHg 94%
    04:00 -31°C° 0 mm 2 mps 757 mmHg 95%
    05:00 -31°C° 0 mm 2 mps 758 mmHg 96%
    06:00 -31°C° 0 mm 2 mps 759 mmHg 97%
    07:00 -31°C° 0 mm 2 mps 759 mmHg 97%
    08:00 -29°C° 0 mm 1 mps 760 mmHg 97%
    09:00 -29°C° 0 mm 1 mps 760 mmHg 97%
    10:00 -30°C° 0 mm 2 mps 761 mmHg 97%
    11:00 -30°C° 0 mm 2 mps 762 mmHg 97%
    12:00 -29°C° 0 mm 2 mps 762 mmHg 96%
    13:00 -31°C° 0 mm 3 mps 763 mmHg 96%
    14:00 -31°C° 0 mm 3 mps 763 mmHg 96%
    15:00 -31°C° 0 mm 3 mps 764 mmHg 96%
    16:00 -32°C° 0 mm 4 mps 764 mmHg 96%
    17:00 -33°C° 0 mm 4 mps 764 mmHg 96%
    18:00 -33°C° 0 mm 4 mps 764 mmHg 96%
    19:00 -34°C° 0 mm 5 mps 764 mmHg 96%
    20:00 -35°C° 0 mm 5 mps 764 mmHg 96%
    21:00 -35°C° 0 mm 5 mps 763 mmHg 96%
    22:00 -35°C° 0 mm 5 mps 763 mmHg 96%
    23:00 -34°C° 0 mm 5 mps 762 mmHg 95%
    Show more